When you browse on this site, cookies collect data to enhance your experience and personalize the content and advertising you see.
Visit our Privacy Policy to learn more. By continuing to use the site, you agree to this use of cookies and data.

Hourly Weather Abakumy

Today, 14 August, Friday

Time Temperature Precipitation Wind Pressure Humidity
00:00 +10°C° 0 mm 2 mps 752 mmHg 81%
01:00 +11°C° 0 mm 1 mps 752 mmHg 81%
02:00 +11°C° 0 mm 1 mps 753 mmHg 81%
03:00 +9°C° 0 mm 2 mps 753 mmHg 84%
04:00 +9°C° 0 mm 2 mps 753 mmHg 86%
05:00 +8°C° 0 mm 2 mps 753 mmHg 89%
06:00 +10°C° 0 mm 2 mps 753 mmHg 80%
07:00 +13°C° 0 mm 2 mps 753 mmHg 72%
08:00 +14°C° 0 mm 3 mps 753 mmHg 64%
09:00 +16°C° 0 mm 3 mps 753 mmHg 58%
10:00 +18°C° 0 mm 3 mps 753 mmHg 52%
11:00 +19°C° 0 mm 3 mps 753 mmHg 46%
12:00 +20°C° 0 mm 3 mps 753 mmHg 46%
13:00 +20°C° 0 mm 3 mps 753 mmHg 46%
14:00 +20°C° 0 mm 3 mps 753 mmHg 46%
15:00 +20°C° 0 mm 3 mps 753 mmHg 48%
16:00 +20°C° 0 mm 3 mps 753 mmHg 51%
17:00 +19°C° 0 mm 3 mps 753 mmHg 53%
18:00 +17°C° 0 mm 2 mps 753 mmHg 60%
19:00 +16°C° 0 mm 2 mps 753 mmHg 66%
20:00 +14°C° 0 mm 1 mps 753 mmHg 73%
21:00 +13°C° 0 mm 1 mps 753 mmHg 75%
22:00 +13°C° 0 mm 1 mps 753 mmHg 78%
23:00 +12°C° 0 mm 1 mps 754 mmHg 80%

Tomorrow, 15 August, Saturday

Time Temperature Precipitation Wind Pressure Humidity
00:00 +12°C° 0 mm 1 mps 754 mmHg 81%
01:00 +11°C° 0 mm 1 mps 754 mmHg 82%
02:00 +11°C° 0 mm 1 mps 754 mmHg 82%
03:00 +11°C° 0 mm 1 mps 754 mmHg 84%
04:00 +10°C° 0 mm 1 mps 754 mmHg 85%
05:00 +9°C° 0 mm 0 mps 754 mmHg 87%
06:00 +11°C° 0 mm 0 mps 754 mmHg 79%
07:00 +15°C° 0 mm 1 mps 754 mmHg 71%
08:00 +18°C° 0 mm 1 mps 754 mmHg 63%
09:00 +19°C° 0 mm 1 mps 754 mmHg 58%
10:00 +21°C° 0 mm 1 mps 754 mmHg 53%
11:00 +23°C° 0 mm 1 mps 754 mmHg 47%
12:00 +23°C° 0 mm 1 mps 754 mmHg 46%
13:00 +24°C° 0 mm 1 mps 754 mmHg 44%
14:00 +24°C° 0 mm 1 mps 754 mmHg 42%
15:00 +24°C° 0 mm 1 mps 753 mmHg 44%
16:00 +23°C° 0 mm 1 mps 753 mmHg 45%
17:00 +23°C° 0 mm 1 mps 753 mmHg 46%
18:00 +21°C° 0 mm 1 mps 753 mmHg 54%
19:00 +19°C° 0 mm 1 mps 753 mmHg 61%
20:00 +15°C° 0 mm 0 mps 753 mmHg 68%
21:00 +15°C° 0 mm 1 mps 753 mmHg 69%
22:00 +15°C° 0 mm 1 mps 753 mmHg 71%
23:00 +14°C° 0 mm 1 mps 753 mmHg 72%

Day after tomorrow, 16 August, Sunday

Time Temperature Precipitation Wind Pressure Humidity
00:00 +14°C° 0 mm 1 mps 753 mmHg 73%
01:00 +14°C° 0 mm 1 mps 753 mmHg 74%
02:00 +13°C° 0 mm 1 mps 753 mmHg 75%
03:00 +13°C° 0 mm 2 mps 753 mmHg 76%
04:00 +13°C° 0 mm 2 mps 753 mmHg 78%
05:00 +13°C° 0 mm 2 mps 753 mmHg 79%
06:00 +15°C° 0 mm 2 mps 753 mmHg 75%
07:00 +17°C° 0 mm 2 mps 753 mmHg 70%
08:00 +19°C° 0 mm 2 mps 753 mmHg 66%
09:00 +20°C° 0 mm 2 mps 753 mmHg 62%
10:00 +22°C° 0 mm 3 mps 753 mmHg 58%
11:00 +25°C° 0 mm 3 mps 753 mmHg 55%
12:00 +25°C° 0 mm 3 mps 753 mmHg 54%
13:00 +26°C° 0 mm 3 mps 753 mmHg 53%
14:00 +26°C° 0 mm 3 mps 753 mmHg 52%
15:00 +26°C° 0 mm 3 mps 752 mmHg 54%
16:00 +26°C° 0 mm 3 mps 752 mmHg 55%
17:00 +25°C° 0 mm 3 mps 752 mmHg 57%
18:00 +24°C° 0 mm 3 mps 752 mmHg 64%
19:00 +21°C° 0 mm 2 mps 752 mmHg 71%
20:00 +19°C° 0 mm 2 mps 752 mmHg 78%
21:00 +18°C° 0 mm 2 mps 752 mmHg 80%
22:00 +18°C° 0 mm 2 mps 752 mmHg 82%
23:00 +17°C° 0 mm 2 mps 752 mmHg 84%

17 August, Monday

Time Temperature Precipitation Wind Pressure Humidity
00:00 +17°C° 0 mm 2 mps 752 mmHg 85%
01:00 +17°C° 0 mm 2 mps 752 mmHg 86%
02:00 +16°C° 0 mm 2 mps 752 mmHg 88%
03:00 +16°C° 0 mm 2 mps 752 mmHg 89%
04:00 +16°C° 0 mm 1 mps 752 mmHg 90%
05:00 +15°C° 0 mm 1 mps 752 mmHg 90%
06:00 +18°C° 0 mm 1 mps 752 mmHg 83%
07:00 +20°C° 0 mm 1 mps 752 mmHg 75%
08:00 +22°C° 0 mm 1 mps 752 mmHg 68%
09:00 +24°C° 0 mm 2 mps 752 mmHg 62%
10:00 +25°C° 0 mm 2 mps 752 mmHg 56%
11:00 +27°C° 0 mm 2 mps 752 mmHg 50%
12:00 +27°C° 0 mm 2 mps 752 mmHg 47%
13:00 +28°C° 0 mm 2 mps 751 mmHg 44%
14:00 +28°C° 0 mm 2 mps 751 mmHg 41%
15:00 +28°C° 0 mm 2 mps 751 mmHg 42%
16:00 +28°C° 0 mm 2 mps 751 mmHg 43%
17:00 +27°C° 0 mm 2 mps 750 mmHg 45%
18:00 +25°C° 0 mm 1 mps 750 mmHg 49%
19:00 +23°C° 0 mm 1 mps 750 mmHg 54%
20:00 +19°C° 0 mm 0 mps 750 mmHg 58%
21:00 +18°C° 0 mm 0 mps 750 mmHg 60%
22:00 +20°C° 0 mm 1 mps 750 mmHg 61%
23:00 +20°C° 0 mm 1 mps 750 mmHg 63%

18 August, Tuesday

Time Temperature Precipitation Wind Pressure Humidity
00:00 +20°C° 0 mm 1 mps 750 mmHg 62%
01:00 +20°C° 0 mm 1 mps 749 mmHg 61%
02:00 +20°C° 0 mm 1 mps 749 mmHg 60%
03:00 +20°C° 0 mm 1 mps 749 mmHg 60%
04:00 +20°C° 0 mm 1 mps 749 mmHg 59%
05:00 +19°C° 0 mm 1 mps 749 mmHg 58%
06:00 +19°C° 0 mm 2 mps 749 mmHg 60%
07:00 +19°C° 0 mm 2 mps 748 mmHg 61%
08:00 +20°C° 0 mm 2 mps 748 mmHg 62%
09:00 +21°C° 0 mm 2 mps 748 mmHg 60%
10:00 +21°C° 0 mm 3 mps 748 mmHg 59%
11:00 +22°C° 0 mm 3 mps 748 mmHg 57%
12:00 +24°C° 0 mm 3 mps 748 mmHg 56%
13:00 +24°C° 0 mm 3 mps 747 mmHg 56%
14:00 +23°C° 0 mm 4 mps 747 mmHg 56%
15:00 +23°C° 0.1 mm 4 mps 747 mmHg 59%
16:00 +22°C° 0.1 mm 3 mps 747 mmHg 62%
17:00 +22°C° 0.1 mm 3 mps 746 mmHg 65%
18:00 +21°C° 0.5 mm 3 mps 746 mmHg 72%
19:00 +19°C° 0.5 mm 3 mps 746 mmHg 79%
20:00 +18°C° 0.5 mm 3 mps 746 mmHg 86%
21:00 +17°C° 0.2 mm 3 mps 746 mmHg 86%
22:00 +17°C° 0.2 mm 3 mps 746 mmHg 86%
23:00 +17°C° 0.2 mm 3 mps 746 mmHg 86%

19 August, Wednesday

Time Temperature Precipitation Wind Pressure Humidity
00:00 +16°C° 0 mm 3 mps 745 mmHg 87%
01:00 +16°C° 0 mm 3 mps 745 mmHg 88%
02:00 +16°C° 0 mm 3 mps 745 mmHg 89%
03:00 +15°C° 0 mm 2 mps 745 mmHg 90%
04:00 +15°C° 0 mm 2 mps 744 mmHg 91%
05:00 +15°C° 0 mm 2 mps 744 mmHg 92%
06:00 +16°C° 0 mm 2 mps 744 mmHg 87%
07:00 +18°C° 0 mm 2 mps 744 mmHg 82%
08:00 +20°C° 0 mm 2 mps 744 mmHg 78%
09:00 +23°C° 0 mm 2 mps 744 mmHg 72%
10:00 +25°C° 0 mm 2 mps 744 mmHg 66%
11:00 +26°C° 0 mm 2 mps 744 mmHg 59%
12:00 +27°C° 0 mm 3 mps 744 mmHg 59%
13:00 +27°C° 0 mm 3 mps 744 mmHg 59%
14:00 +27°C° 0 mm 3 mps 743 mmHg 59%
15:00 +26°C° 0.1 mm 3 mps 743 mmHg 63%
16:00 +25°C° 0.1 mm 3 mps 743 mmHg 67%
17:00 +24°C° 0.1 mm 2 mps 743 mmHg 71%
18:00 +23°C° 0.1 mm 2 mps 743 mmHg 74%
19:00 +21°C° 0.1 mm 3 mps 743 mmHg 77%
20:00 +20°C° 0.1 mm 3 mps 743 mmHg 81%
21:00 +19°C° 0.4 mm 3 mps 743 mmHg 84%
22:00 +19°C° 0.4 mm 3 mps 743 mmHg 87%
23:00 +18°C° 0.4 mm 3 mps 743 mmHg 90%
Show more